owner,sensor,date,latitude,longitude,vertical_datum,sea_water_practical_salinity,qcFlag 
WAVCIS,ioos:station:WAVCIS:CSI16:2,2011-03-01T00:00:00Z,29.4012,-89.0355,1.0,33.29,11111222 
WAVCIS,ioos:station:WAVCIS:CSI16:2,2011-03-01T00:15:00Z,29.4012,-89.0355,1.0,33.327,11111222 
WAVCIS,ioos:station:WAVCIS:CSI16:2,2011-03-01T00:30:00Z,29.4012,-89.0355,1.0,33.336,11111222 
WAVCIS,ioos:station:WAVCIS:CSI16:2,2011-03-01T00:45:00Z,29.4012,-89.0355,1.0,33.469,11111222 
WAVCIS,ioos:station:WAVCIS:CSI16:2,2011-03-01T01:00:00Z,29.4012,-89.0355,1.0,33.533,11111222 
WAVCIS,ioos:station:WAVCIS:CSI16:2,2011-03-01T01:15:00Z,29.4012,-89.0355,1.0,33.493,11111222 
WAVCIS,ioos:station:WAVCIS:CSI16:2,2011-03-01T01:30:00Z,29.4012,-89.0355,1.0,33.519,11111222 
WAVCIS,ioos:station:WAVCIS:CSI16:2,2011-03-01T01:45:00Z,29.4012,-89.0355,1.0,33.569,11111222 
WAVCIS,ioos:station:WAVCIS:CSI16:2,2011-03-01T02:00:00Z,29.4012,-89.0355,1.0,33.608,11111222 
WAVCIS,ioos:station:WAVCIS:CSI16:2,2011-03-01T02:15:00Z,29.4012,-89.0355,1.0,33.666,11111222 
WAVCIS,ioos:station:WAVCIS:CSI16:2,2011-03-01T02:30:00Z,29.4012,-89.0355,1.0,33.694,11111222 
WAVCIS,ioos:station:WAVCIS:CSI16:2,2011-03-01T02:45:00Z,29.4012,-89.0355,1.0,33.667,11111222 
WAVCIS,ioos:station:WAVCIS:CSI16:2,2011-03-01T03:00:00Z,29.4012,-89.0355,1.0,33.667,11111222 
WAVCIS,ioos:station:WAVCIS:CSI16:2,2011-03-01T03:15:00Z,29.4012,-89.0355,1.0,33.668,11111222 
WAVCIS,ioos:station:WAVCIS:CSI16:2,2011-03-01T03:30:00Z,29.4012,-89.0355,1.0,33.689,11111222 
WAVCIS,ioos:station:WAVCIS:CSI16:2,2011-03-01T03:45:00Z,29.4012,-89.0355,1.0,33.677,11111222 
WAVCIS,ioos:station:WAVCIS:CSI16:2,2011-03-01T04:00:00Z,29.4012,-89.0355,1.0,33.705,11111222 
WAVCIS,ioos:station:WAVCIS:CSI16:2,2011-03-01T04:15:00Z,29.4012,-89.0355,1.0,33.713,11111222 
WAVCIS,ioos:station:WAVCIS:CSI16:2,2011-03-01T04:30:00Z,29.4012,-89.0355,1.0,33.698,11111222 
WAVCIS,ioos:station:WAVCIS:CSI16:2,2011-03-01T04:45:00Z,29.4012,-89.0355,1.0,33.688,11111222 
WAVCIS,ioos:station:WAVCIS:CSI16:2,2011-03-01T05:00:00Z,29.4012,-89.0355,1.0,33.668,11111222 
WAVCIS,ioos:station:WAVCIS:CSI16:2,2011-03-01T05:15:00Z,29.4012,-89.0355,1.0,33.643,11111222 
WAVCIS,ioos:station:WAVCIS:CSI16:2,2011-03-01T05:30:00Z,29.4012,-89.0355,1.0,33.686,11111222 
WAVCIS,ioos:station:WAVCIS:CSI16:2,2011-03-01T05:45:00Z,29.4012,-89.0355,1.0,33.603,11111222 
WAVCIS,ioos:station:WAVCIS:CSI16:2,2011-03-01T06:00:00Z,29.4012,-89.0355,1.0,33.603,11111222 
WAVCIS,ioos:station:WAVCIS:CSI16:2,2011-03-01T06:15:00Z,29.4012,-89.0355,1.0,33.537,11111222 
WAVCIS,ioos:station:WAVCIS:CSI16:2,2011-03-01T06:30:00Z,29.4012,-89.0355,1.0,33.446,11111222 
WAVCIS,ioos:station:WAVCIS:CSI16:2,2011-03-01T06:45:00Z,29.4012,-89.0355,1.0,33.67,11111222 
WAVCIS,ioos:station:WAVCIS:CSI16:2,2011-03-01T07:00:00Z,29.4012,-89.0355,1.0,33.399,11111222 
WAVCIS,ioos:station:WAVCIS:CSI16:2,2011-03-01T07:15:00Z,29.4012,-89.0355,1.0,33.346,11111222 
WAVCIS,ioos:station:WAVCIS:CSI16:2,2011-03-01T07:30:00Z,29.4012,-89.0355,1.0,33.357,11111222 
WAVCIS,ioos:station:WAVCIS:CSI16:2,2011-03-01T07:45:00Z,29.4012,-89.0355,1.0,33.28,11111222 
WAVCIS,ioos:station:WAVCIS:CSI16:2,2011-03-01T08:00:00Z,29.4012,-89.0355,1.0,33.231,11111222 
WAVCIS,ioos:station:WAVCIS:CSI16:2,2011-03-01T08:15:00Z,29.4012,-89.0355,1.0,33.201,11111222 
WAVCIS,ioos:station:WAVCIS:CSI16:2,2011-03-01T08:30:00Z,29.4012,-89.0355,1.0,33.279,11111222 
WAVCIS,ioos:station:WAVCIS:CSI16:2,2011-03-01T08:45:00Z,29.4012,-89.0355,1.0,33.285,11111222 
WAVCIS,ioos:station:WAVCIS:CSI16:2,2011-03-01T09:00:00Z,29.4012,-89.0355,1.0,33.245,11111222 
WAVCIS,ioos:station:WAVCIS:CSI16:2,2011-03-01T09:15:00Z,29.4012,-89.0355,1.0,33.221,11111222 
WAVCIS,ioos:station:WAVCIS:CSI16:2,2011-03-01T09:30:00Z,29.4012,-89.0355,1.0,33.24,11111222 
WAVCIS,ioos:station:WAVCIS:CSI16:2,2011-03-01T09:45:00Z,29.4012,-89.0355,1.0,33.347,11111222 
WAVCIS,ioos:station:WAVCIS:CSI16:2,2011-03-01T10:00:00Z,29.4012,-89.0355,1.0,33.365,11111222 
WAVCIS,ioos:station:WAVCIS:CSI16:2,2011-03-01T10:15:00Z,29.4012,-89.0355,1.0,33.349,11111222 
WAVCIS,ioos:station:WAVCIS:CSI16:2,2011-03-01T10:30:00Z,29.4012,-89.0355,1.0,32.632,11111222 
WAVCIS,ioos:station:WAVCIS:CSI16:2,2011-03-01T10:45:00Z,29.4012,-89.0355,1.0,31.064,11111222 
WAVCIS,ioos:station:WAVCIS:CSI16:2,2011-03-01T11:00:00Z,29.4012,-89.0355,1.0,30.483,11111222 
WAVCIS,ioos:station:WAVCIS:CSI16:2,2011-03-01T11:15:00Z,29.4012,-89.0355,1.0,30.699,11111222 
WAVCIS,ioos:station:WAVCIS:CSI16:2,2011-03-01T11:30:00Z,29.4012,-89.0355,1.0,31.129,11111222 
WAVCIS,ioos:station:WAVCIS:CSI16:2,2011-03-01T11:45:00Z,29.4012,-89.0355,1.0,31.405,11111222 
WAVCIS,ioos:station:WAVCIS:CSI16:2,2011-03-01T12:00:00Z,29.4012,-89.0355,1.0,32.101,11111222 
WAVCIS,ioos:station:WAVCIS:CSI16:2,2011-03-01T12:15:00Z,29.4012,-89.0355,1.0,32.426,11111222 
WAVCIS,ioos:station:WAVCIS:CSI16:2,2011-03-01T12:30:00Z,29.4012,-89.0355,1.0,32.56,11111222 
WAVCIS,ioos:station:WAVCIS:CSI16:2,2011-03-01T12:45:00Z,29.4012,-89.0355,1.0,32.677,11111222 
WAVCIS,ioos:station:WAVCIS:CSI16:2,2011-03-01T13:00:00Z,29.4012,-89.0355,1.0,32.836,11111222 
WAVCIS,ioos:station:WAVCIS:CSI16:2,2011-03-01T13:15:00Z,29.4012,-89.0355,1.0,32.684,11111222 
WAVCIS,ioos:station:WAVCIS:CSI16:2,2011-03-01T13:30:00Z,29.4012,-89.0355,1.0,32.706,11111222 
WAVCIS,ioos:station:WAVCIS:CSI16:2,2011-03-01T13:45:00Z,29.4012,-89.0355,1.0,32.801,11111222 
WAVCIS,ioos:station:WAVCIS:CSI16:2,2011-03-01T14:00:00Z,29.4012,-89.0355,1.0,32.729,11111222 
WAVCIS,ioos:station:WAVCIS:CSI16:2,2011-03-01T14:15:00Z,29.4012,-89.0355,1.0,32.713,11111222 
WAVCIS,ioos:station:WAVCIS:CSI16:2,2011-03-01T14:30:00Z,29.4012,-89.0355,1.0,32.64,11111222 
WAVCIS,ioos:station:WAVCIS:CSI16:2,2011-03-01T14:45:00Z,29.4012,-89.0355,1.0,32.699,11111222 
WAVCIS,ioos:station:WAVCIS:CSI16:2,2011-03-01T15:00:00Z,29.4012,-89.0355,1.0,32.726,11111222 
WAVCIS,ioos:station:WAVCIS:CSI16:2,2011-03-01T15:15:00Z,29.4012,-89.0355,1.0,32.577,11111222 
WAVCIS,ioos:station:WAVCIS:CSI16:2,2011-03-01T15:30:00Z,29.4012,-89.0355,1.0,32.427,11111222 
WAVCIS,ioos:station:WAVCIS:CSI16:2,2011-03-01T15:45:00Z,29.4012,-89.0355,1.0,32.479,11111222 
WAVCIS,ioos:station:WAVCIS:CSI16:2,2011-03-01T16:00:00Z,29.4012,-89.0355,1.0,32.384,11111222 
WAVCIS,ioos:station:WAVCIS:CSI16:2,2011-03-01T16:15:00Z,29.4012,-89.0355,1.0,32.415,11111222 
WAVCIS,ioos:station:WAVCIS:CSI16:2,2011-03-01T16:30:00Z,29.4012,-89.0355,1.0,32.375,11111222 
WAVCIS,ioos:station:WAVCIS:CSI16:2,2011-03-01T16:45:00Z,29.4012,-89.0355,1.0,32.338,11111222 
WAVCIS,ioos:station:WAVCIS:CSI16:2,2011-03-01T17:00:00Z,29.4012,-89.0355,1.0,32.289,11111222 
WAVCIS,ioos:station:WAVCIS:CSI16:2,2011-03-01T17:15:00Z,29.4012,-89.0355,1.0,32.339,11111222 
WAVCIS,ioos:station:WAVCIS:CSI16:2,2011-03-01T17:30:00Z,29.4012,-89.0355,1.0,32.175,11111222 
WAVCIS,ioos:station:WAVCIS:CSI16:2,2011-03-01T17:45:00Z,29.4012,-89.0355,1.0,32.238,11111222 
WAVCIS,ioos:station:WAVCIS:CSI16:2,2011-03-01T18:00:00Z,29.4012,-89.0355,1.0,32.248,11111222 
WAVCIS,ioos:station:WAVCIS:CSI16:2,2011-03-01T18:15:00Z,29.4012,-89.0355,1.0,32.106,11111222 
WAVCIS,ioos:station:WAVCIS:CSI16:2,2011-03-01T18:30:00Z,29.4012,-89.0355,1.0,32.088,11111222 
WAVCIS,ioos:station:WAVCIS:CSI16:2,2011-03-01T18:45:00Z,29.4012,-89.0355,1.0,32.032,11111222 
WAVCIS,ioos:station:WAVCIS:CSI16:2,2011-03-01T19:00:00Z,29.4012,-89.0355,1.0,32.028,11111222 
WAVCIS,ioos:station:WAVCIS:CSI16:2,2011-03-01T19:15:00Z,29.4012,-89.0355,1.0,32.008,11111222 
WAVCIS,ioos:station:WAVCIS:CSI16:2,2011-03-01T19:30:00Z,29.4012,-89.0355,1.0,31.996,11111222 
WAVCIS,ioos:station:WAVCIS:CSI16:2,2011-03-01T19:45:00Z,29.4012,-89.0355,1.0,32.011,11111222 
WAVCIS,ioos:station:WAVCIS:CSI16:2,2011-03-01T20:00:00Z,29.4012,-89.0355,1.0,31.953,11111222 
WAVCIS,ioos:station:WAVCIS:CSI16:2,2011-03-01T20:15:00Z,29.4012,-89.0355,1.0,31.949,11111222 
WAVCIS,ioos:station:WAVCIS:CSI16:2,2011-03-01T20:30:00Z,29.4012,-89.0355,1.0,31.931,11111222 
WAVCIS,ioos:station:WAVCIS:CSI16:2,2011-03-01T20:45:00Z,29.4012,-89.0355,1.0,31.912,11111222 
WAVCIS,ioos:station:WAVCIS:CSI16:2,2011-03-01T21:00:00Z,29.4012,-89.0355,1.0,31.897,11111222 
WAVCIS,ioos:station:WAVCIS:CSI16:2,2011-03-01T21:15:00Z,29.4012,-89.0355,1.0,31.869,11111222 
WAVCIS,ioos:station:WAVCIS:CSI16:2,2011-03-01T21:30:00Z,29.4012,-89.0355,1.0,31.804,11111222 
WAVCIS,ioos:station:WAVCIS:CSI16:2,2011-03-01T21:45:00Z,29.4012,-89.0355,1.0,31.797,11111222 
WAVCIS,ioos:station:WAVCIS:CSI16:2,2011-03-01T22:00:00Z,29.4012,-89.0355,1.0,31.762,11111222 
WAVCIS,ioos:station:WAVCIS:CSI16:2,2011-03-01T22:15:00Z,29.4012,-89.0355,1.0,31.732,11111222 
WAVCIS,ioos:station:WAVCIS:CSI16:2,2011-03-01T22:30:00Z,29.4012,-89.0355,1.0,31.714,11111222 
WAVCIS,ioos:station:WAVCIS:CSI16:2,2011-03-01T22:45:00Z,29.4012,-89.0355,1.0,31.669,11111222 
WAVCIS,ioos:station:WAVCIS:CSI16:2,2011-03-01T23:00:00Z,29.4012,-89.0355,1.0,31.596,11111222 
WAVCIS,ioos:station:WAVCIS:CSI16:2,2011-03-01T23:15:00Z,29.4012,-89.0355,1.0,31.61,11111222 
WAVCIS,ioos:station:WAVCIS:CSI16:2,2011-03-01T23:30:00Z,29.4012,-89.0355,1.0,31.658,11111222 
WAVCIS,ioos:station:WAVCIS:CSI16:2,2011-03-01T23:45:00Z,29.4012,-89.0355,1.0,31.694,11111222 
WAVCIS,ioos:station:WAVCIS:CSI16:2,2011-03-02T00:00:00Z,29.4012,-89.0355,1.0,31.705,11111222 
WAVCIS,ioos:station:WAVCIS:CSI16:2,2011-03-02T00:15:00Z,29.4012,-89.0355,1.0,31.726,11111222 
WAVCIS,ioos:station:WAVCIS:CSI16:2,2011-03-02T00:30:00Z,29.4012,-89.0355,1.0,31.798,11111222 
WAVCIS,ioos:station:WAVCIS:CSI16:2,2011-03-02T00:45:00Z,29.4012,-89.0355,1.0,31.798,11111222 
WAVCIS,ioos:station:WAVCIS:CSI16:2,2011-03-02T01:00:00Z,29.4012,-89.0355,1.0,31.801,11111222 
WAVCIS,ioos:station:WAVCIS:CSI16:2,2011-03-02T01:15:00Z,29.4012,-89.0355,1.0,31.816,11111222 
WAVCIS,ioos:station:WAVCIS:CSI16:2,2011-03-02T01:30:00Z,29.4012,-89.0355,1.0,31.795,11111222 
WAVCIS,ioos:station:WAVCIS:CSI16:2,2011-03-02T01:45:00Z,29.4012,-89.0355,1.0,31.838,11111222 
WAVCIS,ioos:station:WAVCIS:CSI16:2,2011-03-02T02:00:00Z,29.4012,-89.0355,1.0,31.819,11111222 
WAVCIS,ioos:station:WAVCIS:CSI16:2,2011-03-02T02:15:00Z,29.4012,-89.0355,1.0,31.838,11111222 
WAVCIS,ioos:station:WAVCIS:CSI16:2,2011-03-02T02:30:00Z,29.4012,-89.0355,1.0,31.849,11111222 
WAVCIS,ioos:station:WAVCIS:CSI16:2,2011-03-02T02:45:00Z,29.4012,-89.0355,1.0,31.83,11111222 
WAVCIS,ioos:station:WAVCIS:CSI16:2,2011-03-02T03:00:00Z,29.4012,-89.0355,1.0,31.846,11111222 
WAVCIS,ioos:station:WAVCIS:CSI16:2,2011-03-02T03:15:00Z,29.4012,-89.0355,1.0,31.788,11111222 
WAVCIS,ioos:station:WAVCIS:CSI16:2,2011-03-02T03:30:00Z,29.4012,-89.0355,1.0,31.812,11111222 
WAVCIS,ioos:station:WAVCIS:CSI16:2,2011-03-02T03:45:00Z,29.4012,-89.0355,1.0,31.77,11111222 
WAVCIS,ioos:station:WAVCIS:CSI16:2,2011-03-02T04:00:00Z,29.4012,-89.0355,1.0,31.717,11111222 
WAVCIS,ioos:station:WAVCIS:CSI16:2,2011-03-02T04:15:00Z,29.4012,-89.0355,1.0,31.714,11111222 
WAVCIS,ioos:station:WAVCIS:CSI16:2,2011-03-02T04:30:00Z,29.4012,-89.0355,1.0,31.758,11111222 
WAVCIS,ioos:station:WAVCIS:CSI16:2,2011-03-02T04:45:00Z,29.4012,-89.0355,1.0,31.747,11111222 
WAVCIS,ioos:station:WAVCIS:CSI16:2,2011-03-02T05:00:00Z,29.4012,-89.0355,1.0,31.76,11111222 
WAVCIS,ioos:station:WAVCIS:CSI16:2,2011-03-02T05:15:00Z,29.4012,-89.0355,1.0,31.736,11111222 
WAVCIS,ioos:station:WAVCIS:CSI16:2,2011-03-02T05:30:00Z,29.4012,-89.0355,1.0,31.713,11111222 
WAVCIS,ioos:station:WAVCIS:CSI16:2,2011-03-02T05:45:00Z,29.4012,-89.0355,1.0,31.695,11111222 
WAVCIS,ioos:station:WAVCIS:CSI16:2,2011-03-02T06:00:00Z,29.4012,-89.0355,1.0,31.652,11111222 
WAVCIS,ioos:station:WAVCIS:CSI16:2,2011-03-02T06:15:00Z,29.4012,-89.0355,1.0,31.741,11111222 
WAVCIS,ioos:station:WAVCIS:CSI16:2,2011-03-02T06:30:00Z,29.4012,-89.0355,1.0,31.725,11111222 
WAVCIS,ioos:station:WAVCIS:CSI16:2,2011-03-02T06:45:00Z,29.4012,-89.0355,1.0,31.707,11111222 
WAVCIS,ioos:station:WAVCIS:CSI16:2,2011-03-02T07:00:00Z,29.4012,-89.0355,1.0,31.695,11111222 
WAVCIS,ioos:station:WAVCIS:CSI16:2,2011-03-02T07:15:00Z,29.4012,-89.0355,1.0,31.645,11111222 
WAVCIS,ioos:station:WAVCIS:CSI16:2,2011-03-02T07:30:00Z,29.4012,-89.0355,1.0,31.555,11111222 
WAVCIS,ioos:station:WAVCIS:CSI16:2,2011-03-02T07:45:00Z,29.4012,-89.0355,1.0,31.508,11111222 
WAVCIS,ioos:station:WAVCIS:CSI16:2,2011-03-02T08:00:00Z,29.4012,-89.0355,1.0,31.459,11111222 
WAVCIS,ioos:station:WAVCIS:CSI16:2,2011-03-02T08:15:00Z,29.4012,-89.0355,1.0,31.385,11111222 
WAVCIS,ioos:station:WAVCIS:CSI16:2,2011-03-02T08:30:00Z,29.4012,-89.0355,1.0,31.294,11111222 
WAVCIS,ioos:station:WAVCIS:CSI16:2,2011-03-02T08:45:00Z,29.4012,-89.0355,1.0,31.308,11111222 
WAVCIS,ioos:station:WAVCIS:CSI16:2,2011-03-02T09:00:00Z,29.4012,-89.0355,1.0,31.344,11111222 
WAVCIS,ioos:station:WAVCIS:CSI16:2,2011-03-02T09:15:00Z,29.4012,-89.0355,1.0,31.363,11111222 
WAVCIS,ioos:station:WAVCIS:CSI16:2,2011-03-02T09:30:00Z,29.4012,-89.0355,1.0,31.374,11111222 
WAVCIS,ioos:station:WAVCIS:CSI16:2,2011-03-02T09:45:00Z,29.4012,-89.0355,1.0,31.379,11111222 
WAVCIS,ioos:station:WAVCIS:CSI16:2,2011-03-02T10:00:00Z,29.4012,-89.0355,1.0,31.39,11111222 
WAVCIS,ioos:station:WAVCIS:CSI16:2,2011-03-02T10:15:00Z,29.4012,-89.0355,1.0,31.386,11111222 
WAVCIS,ioos:station:WAVCIS:CSI16:2,2011-03-02T10:30:00Z,29.4012,-89.0355,1.0,31.581,11111222 
WAVCIS,ioos:station:WAVCIS:CSI16:2,2011-03-02T10:45:00Z,29.4012,-89.0355,1.0,31.653,11111222 
WAVCIS,ioos:station:WAVCIS:CSI16:2,2011-03-02T11:00:00Z,29.4012,-89.0355,1.0,31.657,11111222 
WAVCIS,ioos:station:WAVCIS:CSI16:2,2011-03-02T11:15:00Z,29.4012,-89.0355,1.0,31.672,11111222 
WAVCIS,ioos:station:WAVCIS:CSI16:2,2011-03-02T11:30:00Z,29.4012,-89.0355,1.0,31.703,11111222 
WAVCIS,ioos:station:WAVCIS:CSI16:2,2011-03-02T11:45:00Z,29.4012,-89.0355,1.0,31.757,11111222 
WAVCIS,ioos:station:WAVCIS:CSI16:2,2011-03-02T12:00:00Z,29.4012,-89.0355,1.0,31.764,11111222 
WAVCIS,ioos:station:WAVCIS:CSI16:2,2011-03-02T12:15:00Z,29.4012,-89.0355,1.0,31.693,11111222 
WAVCIS,ioos:station:WAVCIS:CSI16:2,2011-03-02T12:30:00Z,29.4012,-89.0355,1.0,31.551,11111222 
WAVCIS,ioos:station:WAVCIS:CSI16:2,2011-03-02T12:45:00Z,29.4012,-89.0355,1.0,31.514,11111222 
WAVCIS,ioos:station:WAVCIS:CSI16:2,2011-03-02T13:00:00Z,29.4012,-89.0355,1.0,31.419,11111222 
WAVCIS,ioos:station:WAVCIS:CSI16:2,2011-03-02T13:15:00Z,29.4012,-89.0355,1.0,31.475,11111222 
WAVCIS,ioos:station:WAVCIS:CSI16:2,2011-03-02T13:30:00Z,29.4012,-89.0355,1.0,31.503,11111222 
WAVCIS,ioos:station:WAVCIS:CSI16:2,2011-03-02T13:45:00Z,29.4012,-89.0355,1.0,31.429,11111222 
WAVCIS,ioos:station:WAVCIS:CSI16:2,2011-03-02T14:00:00Z,29.4012,-89.0355,1.0,31.376,11111222 
WAVCIS,ioos:station:WAVCIS:CSI16:2,2011-03-02T14:15:00Z,29.4012,-89.0355,1.0,31.369,11111222 
WAVCIS,ioos:station:WAVCIS:CSI16:2,2011-03-02T14:30:00Z,29.4012,-89.0355,1.0,31.349,11111222 
WAVCIS,ioos:station:WAVCIS:CSI16:2,2011-03-02T14:45:00Z,29.4012,-89.0355,1.0,31.23,11111222 
WAVCIS,ioos:station:WAVCIS:CSI16:2,2011-03-02T15:00:00Z,29.4012,-89.0355,1.0,31.213,11111222 
WAVCIS,ioos:station:WAVCIS:CSI16:2,2011-03-02T15:15:00Z,29.4012,-89.0355,1.0,31.208,11111222 
WAVCIS,ioos:station:WAVCIS:CSI16:2,2011-03-02T15:30:00Z,29.4012,-89.0355,1.0,31.228,11111222 
WAVCIS,ioos:station:WAVCIS:CSI16:2,2011-03-02T15:45:00Z,29.4012,-89.0355,1.0,31.243,11111222 
WAVCIS,ioos:station:WAVCIS:CSI16:2,2011-03-02T16:00:00Z,29.4012,-89.0355,1.0,31.261,11111222 
WAVCIS,ioos:station:WAVCIS:CSI16:2,2011-03-02T16:15:00Z,29.4012,-89.0355,1.0,31.296,11111222 
WAVCIS,ioos:station:WAVCIS:CSI16:2,2011-03-02T16:30:00Z,29.4012,-89.0355,1.0,31.305,11111222 
WAVCIS,ioos:station:WAVCIS:CSI16:2,2011-03-02T16:45:00Z,29.4012,-89.0355,1.0,31.301,11111222 
WAVCIS,ioos:station:WAVCIS:CSI16:2,2011-03-02T17:00:00Z,29.4012,-89.0355,1.0,31.303,11111222 
WAVCIS,ioos:station:WAVCIS:CSI16:2,2011-03-02T17:15:00Z,29.4012,-89.0355,1.0,31.294,11111222 
WAVCIS,ioos:station:WAVCIS:CSI16:2,2011-03-02T17:30:00Z,29.4012,-89.0355,1.0,31.281,11111222 
WAVCIS,ioos:station:WAVCIS:CSI16:2,2011-03-02T17:45:00Z,29.4012,-89.0355,1.0,31.289,11111222 
WAVCIS,ioos:station:WAVCIS:CSI16:2,2011-03-02T18:00:00Z,29.4012,-89.0355,1.0,31.255,11111222 
WAVCIS,ioos:station:WAVCIS:CSI16:2,2011-03-02T18:15:00Z,29.4012,-89.0355,1.0,31.286,11111222 
WAVCIS,ioos:station:WAVCIS:CSI16:2,2011-03-02T18:30:00Z,29.4012,-89.0355,1.0,31.279,11111222 
WAVCIS,ioos:station:WAVCIS:CSI16:2,2011-03-02T18:45:00Z,29.4012,-89.0355,1.0,31.289,11111222 
WAVCIS,ioos:station:WAVCIS:CSI16:2,2011-03-02T19:00:00Z,29.4012,-89.0355,1.0,31.284,11111222 
WAVCIS,ioos:station:WAVCIS:CSI16:2,2011-03-02T19:15:00Z,29.4012,-89.0355,1.0,31.256,11111222 
WAVCIS,ioos:station:WAVCIS:CSI16:2,2011-03-02T19:30:00Z,29.4012,-89.0355,1.0,31.249,11111222 
WAVCIS,ioos:station:WAVCIS:CSI16:2,2011-03-02T19:45:00Z,29.4012,-89.0355,1.0,31.218,11111222 
WAVCIS,ioos:station:WAVCIS:CSI16:2,2011-03-02T20:00:00Z,29.4012,-89.0355,1.0,31.213,11111222 
WAVCIS,ioos:station:WAVCIS:CSI16:2,2011-03-02T20:15:00Z,29.4012,-89.0355,1.0,31.204,11111222 
WAVCIS,ioos:station:WAVCIS:CSI16:2,2011-03-02T20:30:00Z,29.4012,-89.0355,1.0,31.122,11111222 
WAVCIS,ioos:station:WAVCIS:CSI16:2,2011-03-02T20:45:00Z,29.4012,-89.0355,1.0,31.119,11111222 
WAVCIS,ioos:station:WAVCIS:CSI16:2,2011-03-02T21:00:00Z,29.4012,-89.0355,1.0,31.07,11111222 
WAVCIS,ioos:station:WAVCIS:CSI16:2,2011-03-02T21:15:00Z,29.4012,-89.0355,1.0,30.991,11111222 
WAVCIS,ioos:station:WAVCIS:CSI16:2,2011-03-02T21:30:00Z,29.4012,-89.0355,1.0,31.086,11111222 
WAVCIS,ioos:station:WAVCIS:CSI16:2,2011-03-02T21:45:00Z,29.4012,-89.0355,1.0,31.136,11111222 
WAVCIS,ioos:station:WAVCIS:CSI16:2,2011-03-02T22:00:00Z,29.4012,-89.0355,1.0,31.181,11111222 
WAVCIS,ioos:station:WAVCIS:CSI16:2,2011-03-02T22:15:00Z,29.4012,-89.0355,1.0,31.171,11111222 
WAVCIS,ioos:station:WAVCIS:CSI16:2,2011-03-02T22:30:00Z,29.4012,-89.0355,1.0,31.174,11111222 
WAVCIS,ioos:station:WAVCIS:CSI16:2,2011-03-02T22:45:00Z,29.4012,-89.0355,1.0,31.17,11111222 
WAVCIS,ioos:station:WAVCIS:CSI16:2,2011-03-02T23:00:00Z,29.4012,-89.0355,1.0,31.196,11111222 
WAVCIS,ioos:station:WAVCIS:CSI16:2,2011-03-02T23:15:00Z,29.4012,-89.0355,1.0,31.206,11111222 
WAVCIS,ioos:station:WAVCIS:CSI16:2,2011-03-02T23:30:00Z,29.4012,-89.0355,1.0,31.197,11111222 
WAVCIS,ioos:station:WAVCIS:CSI16:2,2011-03-02T23:45:00Z,29.4012,-89.0355,1.0,31.161,11111222 
WAVCIS,ioos:station:WAVCIS:CSI16:2,2011-03-03T00:00:00Z,29.4012,-89.0355,1.0,31.155,11111222 
WAVCIS,ioos:station:WAVCIS:CSI16:2,2011-03-03T00:15:00Z,29.4012,-89.0355,1.0,31.135,11111222 
WAVCIS,ioos:station:WAVCIS:CSI16:2,2011-03-03T00:30:00Z,29.4012,-89.0355,1.0,31.132,11111222 
WAVCIS,ioos:station:WAVCIS:CSI16:2,2011-03-03T00:45:00Z,29.4012,-89.0355,1.0,31.114,11111222 
WAVCIS,ioos:station:WAVCIS:CSI16:2,2011-03-03T01:00:00Z,29.4012,-89.0355,1.0,31.104,11111222 
WAVCIS,ioos:station:WAVCIS:CSI16:2,2011-03-03T01:15:00Z,29.4012,-89.0355,1.0,31.105,11111222 
WAVCIS,ioos:station:WAVCIS:CSI16:2,2011-03-03T01:30:00Z,29.4012,-89.0355,1.0,31.112,11111222 
WAVCIS,ioos:station:WAVCIS:CSI16:2,2011-03-03T01:45:00Z,29.4012,-89.0355,1.0,31.108,11111222 
WAVCIS,ioos:station:WAVCIS:CSI16:2,2011-03-03T02:00:00Z,29.4012,-89.0355,1.0,31.111,11111222 
WAVCIS,ioos:station:WAVCIS:CSI16:2,2011-03-03T02:15:00Z,29.4012,-89.0355,1.0,31.119,11111222 
WAVCIS,ioos:station:WAVCIS:CSI16:2,2011-03-03T02:30:00Z,29.4012,-89.0355,1.0,31.121,11111222 
WAVCIS,ioos:station:WAVCIS:CSI16:2,2011-03-03T02:45:00Z,29.4012,-89.0355,1.0,31.125,11111222 
WAVCIS,ioos:station:WAVCIS:CSI16:2,2011-03-03T03:00:00Z,29.4012,-89.0355,1.0,31.125,11111222 
WAVCIS,ioos:station:WAVCIS:CSI16:2,2011-03-03T03:15:00Z,29.4012,-89.0355,1.0,31.127,11111222 
WAVCIS,ioos:station:WAVCIS:CSI16:2,2011-03-03T03:30:00Z,29.4012,-89.0355,1.0,31.138,11111222 
WAVCIS,ioos:station:WAVCIS:CSI16:2,2011-03-03T03:45:00Z,29.4012,-89.0355,1.0,31.131,11111222 
WAVCIS,ioos:station:WAVCIS:CSI16:2,2011-03-03T04:00:00Z,29.4012,-89.0355,1.0,31.127,11111222 
WAVCIS,ioos:station:WAVCIS:CSI16:2,2011-03-03T04:15:00Z,29.4012,-89.0355,1.0,31.133,11111222 
WAVCIS,ioos:station:WAVCIS:CSI16:2,2011-03-03T04:30:00Z,29.4012,-89.0355,1.0,31.137,11111222 
WAVCIS,ioos:station:WAVCIS:CSI16:2,2011-03-03T04:45:00Z,29.4012,-89.0355,1.0,31.127,11111222 
WAVCIS,ioos:station:WAVCIS:CSI16:2,2011-03-03T05:00:00Z,29.4012,-89.0355,1.0,31.123,11111222 
WAVCIS,ioos:station:WAVCIS:CSI16:2,2011-03-03T05:15:00Z,29.4012,-89.0355,1.0,31.122,11111222 
WAVCIS,ioos:station:WAVCIS:CSI16:2,2011-03-03T05:30:00Z,29.4012,-89.0355,1.0,31.12,11111222 
WAVCIS,ioos:station:WAVCIS:CSI16:2,2011-03-03T05:45:00Z,29.4012,-89.0355,1.0,31.127,11111222 
WAVCIS,ioos:station:WAVCIS:CSI16:2,2011-03-03T06:00:00Z,29.4012,-89.0355,1.0,31.127,11111222 
WAVCIS,ioos:station:WAVCIS:CSI16:2,2011-03-03T06:15:00Z,29.4012,-89.0355,1.0,31.125,11111222 
WAVCIS,ioos:station:WAVCIS:CSI16:2,2011-03-03T06:30:00Z,29.4012,-89.0355,1.0,31.122,11111222 
WAVCIS,ioos:station:WAVCIS:CSI16:2,2011-03-03T06:45:00Z,29.4012,-89.0355,1.0,31.121,11111222 
WAVCIS,ioos:station:WAVCIS:CSI16:2,2011-03-03T07:00:00Z,29.4012,-89.0355,1.0,31.114,11111222 
WAVCIS,ioos:station:WAVCIS:CSI16:2,2011-03-03T07:15:00Z,29.4012,-89.0355,1.0,31.121,11111222 
WAVCIS,ioos:station:WAVCIS:CSI16:2,2011-03-03T07:30:00Z,29.4012,-89.0355,1.0,31.127,11111222 
WAVCIS,ioos:station:WAVCIS:CSI16:2,2011-03-03T07:45:00Z,29.4012,-89.0355,1.0,31.122,11111222 
WAVCIS,ioos:station:WAVCIS:CSI16:2,2011-03-03T08:00:00Z,29.4012,-89.0355,1.0,31.12,11111222 
WAVCIS,ioos:station:WAVCIS:CSI16:2,2011-03-03T08:15:00Z,29.4012,-89.0355,1.0,31.113,11111222 
WAVCIS,ioos:station:WAVCIS:CSI16:2,2011-03-03T08:30:00Z,29.4012,-89.0355,1.0,31.1,11111222 
WAVCIS,ioos:station:WAVCIS:CSI16:2,2011-03-03T08:45:00Z,29.4012,-89.0355,1.0,31.097,11111222 
WAVCIS,ioos:station:WAVCIS:CSI16:2,2011-03-03T09:00:00Z,29.4012,-89.0355,1.0,31.09,11111222 
WAVCIS,ioos:station:WAVCIS:CSI16:2,2011-03-03T09:15:00Z,29.4012,-89.0355,1.0,31.085,11111222 
WAVCIS,ioos:station:WAVCIS:CSI16:2,2011-03-03T09:30:00Z,29.4012,-89.0355,1.0,31.091,11111222 
WAVCIS,ioos:station:WAVCIS:CSI16:2,2011-03-03T09:45:00Z,29.4012,-89.0355,1.0,31.084,11111222 
WAVCIS,ioos:station:WAVCIS:CSI16:2,2011-03-03T10:00:00Z,29.4012,-89.0355,1.0,31.096,11111222 
WAVCIS,ioos:station:WAVCIS:CSI16:2,2011-03-03T10:15:00Z,29.4012,-89.0355,1.0,31.095,11111222 
WAVCIS,ioos:station:WAVCIS:CSI16:2,2011-03-03T10:30:00Z,29.4012,-89.0355,1.0,31.096,11111222 
WAVCIS,ioos:station:WAVCIS:CSI16:2,2011-03-03T10:45:00Z,29.4012,-89.0355,1.0,31.093,11111222 
WAVCIS,ioos:station:WAVCIS:CSI16:2,2011-03-03T11:00:00Z,29.4012,-89.0355,1.0,31.094,11111222 
WAVCIS,ioos:station:WAVCIS:CSI16:2,2011-03-03T11:15:00Z,29.4012,-89.0355,1.0,31.095,11111222 
WAVCIS,ioos:station:WAVCIS:CSI16:2,2011-03-03T11:30:00Z,29.4012,-89.0355,1.0,31.098,11111222 
WAVCIS,ioos:station:WAVCIS:CSI16:2,2011-03-03T11:45:00Z,29.4012,-89.0355,1.0,31.103,11111222 
WAVCIS,ioos:station:WAVCIS:CSI16:2,2011-03-03T12:00:00Z,29.4012,-89.0355,1.0,31.097,11111222 
WAVCIS,ioos:station:WAVCIS:CSI16:2,2011-03-03T12:15:00Z,29.4012,-89.0355,1.0,31.101,11111222 
WAVCIS,ioos:station:WAVCIS:CSI16:2,2011-03-03T12:30:00Z,29.4012,-89.0355,1.0,31.092,11111222 
WAVCIS,ioos:station:WAVCIS:CSI16:2,2011-03-03T12:45:00Z,29.4012,-89.0355,1.0,31.091,11111222 
WAVCIS,ioos:station:WAVCIS:CSI16:2,2011-03-03T13:00:00Z,29.4012,-89.0355,1.0,31.087,11111222 
WAVCIS,ioos:station:WAVCIS:CSI16:2,2011-03-03T13:15:00Z,29.4012,-89.0355,1.0,31.086,11111222 
WAVCIS,ioos:station:WAVCIS:CSI16:2,2011-03-03T13:30:00Z,29.4012,-89.0355,1.0,31.087,11111222 
WAVCIS,ioos:station:WAVCIS:CSI16:2,2011-03-03T13:45:00Z,29.4012,-89.0355,1.0,31.101,11111222 
WAVCIS,ioos:station:WAVCIS:CSI16:2,2011-03-03T14:00:00Z,29.4012,-89.0355,1.0,31.101,11111222 
WAVCIS,ioos:station:WAVCIS:CSI16:2,2011-03-03T14:15:00Z,29.4012,-89.0355,1.0,31.094,11111222 
WAVCIS,ioos:station:WAVCIS:CSI16:2,2011-03-03T14:30:00Z,29.4012,-89.0355,1.0,31.116,11111222 
WAVCIS,ioos:station:WAVCIS:CSI16:2,2011-03-03T14:45:00Z,29.4012,-89.0355,1.0,31.1,11111222 
WAVCIS,ioos:station:WAVCIS:CSI16:2,2011-03-03T15:00:00Z,29.4012,-89.0355,1.0,31.087,11111222 
WAVCIS,ioos:station:WAVCIS:CSI16:2,2011-03-03T15:15:00Z,29.4012,-89.0355,1.0,31.101,11111222 